Regional Weather Roundup
Issued by NWS

Home | Current Version | Previous Version | Graphics & Text | Print | Product List | Glossary On
Versions: 1 2 3 4 5 6 7 8 9 10 11 12 13 14 15 16 17 18 19 20 21 22 23 24 25 26 27 28
000
ASUS45 KSLC 232210
RWRUT

UTAH REGIONAL WEATHER ROUNDUP
NATIONAL WEATHER SERVICE SALT LAKE CITY UT
300 PM MST THU FEB 23 2017

UTZ001>011-023>025-232300-

NORTHERN UTAH

CITY           SKY/WX    TMP DP  RH WIND       PRES   REMARKS
BRIGHAM CITY     N/A     31  24  76 N3        29.80S
HILL AFB       LGT SNOW  29  20  69 SW13      29.79R WCI  19
LOGAN          CLOUDY    33  23  66 W5        29.77S WCI  29
OGDEN          LGT SNOW  30  22  72 W10       29.80R WCI  21
SALT LAKE CITY CLOUDY    32  24  72 W18       29.82S WCI  20
TOOELE VALLEY  CLOUDY    34  23  64 CALM      29.83S
WENDOVER       PTSUNNY   37  12  35 NW14      29.83R WCI  29
HEBER CITY     CLOUDY    30  16  55 SW12      29.73R WCI  21
WEST JORDAN    CLOUDY    31  31  97 CALM      29.82S

$$

UTZ011>015-024>027-232300-

CENTRAL/NORTHEAST UTAH

CITY           SKY/WX    TMP DP  RH WIND       PRES   REMARKS
PROVO AIRPORT  LGT SNOW  28  25  86 N3        29.84R FOG
MOAB/CANYONLAN PTSUNNY   42  10  27 W10G22    29.70S
DELTA          CLOUDY    30  27  86 N7        29.84R WCI  23
PRICE          CLOUDY    34  17  50 W14       29.69R WCI  25
ROOSEVELT      CLOUDY    32  27  80 E9        29.69R WCI  24
VERNAL         LGT SNOW  28  24  85 CALM      29.69R FOG

$$

UTZ013>016-019>022-027-232300-

SOUTHERN UTAH

CITY           SKY/WX    TMP DP  RH WIND       PRES   REMARKS
BRYCE CANYON   MOSUNNY   24   6  46 NW15      29.76R WCI  11
CEDAR CITY     PTSUNNY   33  17  51 W15       29.80S WCI  23
MILFORD        MOSUNNY   35  16  45 S9        29.80F WCI  28
ST GEORGE      MOCLDY    49  10  20 SW16G26   29.86F
HANKSVILLE     SUNNY     43   5  21 N13G20    29.76R
BLANDING       MOSUNNY   38  -1  19 W20G26    29.78S WCI  28

$$

REGIONAL REPORTS     COLORADO/ARIZONA

CITY           SKY/WX    TMP DP  RH WIND       PRES   REMARKS
CRAIG, CO      CLOUDY    29  13  51 W15       29.64R WCI  18
GRAND JUNCTION PTSUNNY   38  15  39 NW18G29   29.69R WCI  28
RIFLE, CO      FLURRIES  31  20  63 VRB5G23   29.69R WCI  26
MONTROSE, CO   SUNNY     37   6  27 SW17G26   29.70R WCI  27
CORTEZ, CO     MOSUNNY   37   2  22 W14       29.72S WCI  28
COLORADO CITY    N/A     43  10  26 W14       29.86F
PAGE, AZ       MOSUNNY   46 -10   9 W14G30    29.78S
GRAND CANYON   PTSUNNY   34  12  40 NW10G20   29.80F WCI  26
KINGMAN, AZ    SUNNY     50 -14   6 W12G23    29.89F
FLAGSTAFF, AZ  CLOUDY    36  16  44 SW18G28   29.79F WCI  26

$$

REGIONAL REPORTS    NEVADA/IDAHO/WYOMING

CITY           SKY/WX    TMP DP  RH WIND       PRES   REMARKS
LAS VEGAS, NV  MOSUNNY   54   6  14 NW12      29.89F
ELY, NY        CLOUDY    24  18  77 N14       29.83S WCI  12
ELKO, NV       CLOUDY    30  13  49 W12       29.90S WCI  20
POCATELLO, ID  LGT SNOW  26  23  88 SW25      29.77R FOG     WCI  11
BURLEY, ID     SNOW      28  22  78 W24G35    29.81R VSB 1/2 WCI  14
FORT BRIDGER,  LGT SNOW  23  21  91 W21G28    29.68S WCI   8
EVANSTON, WY   CLOUDY    21  15  78 SW20      29.67R WCI   6
ROCK SPRINGS,  SNOW      22  17  81 NW26      29.62R VSB 1/2 WCI   5

$$




USA.gov is the U.S. government's official web portal to all federal, state and local government web resources and services.